Location: Unspecified
(0.0000°N, 0.0000°E)
Time: 09:58:29
(UTC+00:00)

STARLINK-1060 - Pass Details

Date: 11 December 2019
Orbit: 549 x 550 km, 53.0° (Epoch: 12 August)

Event Time Altitude Azimuth Distance (km) Brightness Sun altitude
Rises 19:38:30 0° 245° (WSW) 2,716 8.6 -24.1°
Reaches altitude 10° 19:41:30 10° 267° (W) 1,819 7.1 -24.7°
Maximum altitude 19:43:59 15° 305° (NW) 1,496 6.1 -25.3°
Enters shadow 19:45:14 14° 326° (NW) 1,583 6.0 -25.6°
